This is the latest recevied weather packets stored in our database for station/object PD0HRY-12. If no packets are shown the sender has not sent any weather packets the latest 10 day(s).
| Time | Temp. | Humidity | Pressure | Rain* | Wind** | Luminosity | Snow |
|---|---|---|---|---|---|---|---|
| 1788514203 | 20° C | 92% | 1006 hPa | 6.1 mm | - | - | - |
| 1788512401 | 20.56° C | 84% | 1006 hPa | - | - | - | - |
| 1788510605 | 21.67° C | 81% | 1006 hPa | - | - | - | - |
| 1788508803 | 21.67° C | 81% | 1006 hPa | - | - | - | - |
| 1788507001 | 21.11° C | 82% | 1006 hPa | - | - | - | - |
| 1788505204 | 21.11° C | 81% | 1007 hPa | - | - | - | - |
| 1788503403 | 21.11° C | 80% | 1007 hPa | - | - | - | - |
| 1788501601 | 21.11° C | 80% | 1007 hPa | - | - | - | - |
| 1788499804 | 20.56° C | 81% | 1007 hPa | - | - | - | - |
| 1788498002 | 20.56° C | 80% | 1008 hPa | - | - | - | - |
| 1788496201 | 20.56° C | 80% | 1008 hPa | - | - | - | - |
| 1788494404 | 20.56° C | 81% | 1008 hPa | - | - | - | - |
| 1788492602 | 20.56° C | 81% | 1008 hPa | - | - | - | - |
| 1788490801 | 20.56° C | 85% | 1009 hPa | - | - | - | - |
| 1788489004 | 20° C | 88% | 1009 hPa | - | - | - | - |
| 1788487202 | 20° C | 87% | 1009 hPa | - | - | - | - |
| 1788485401 | 20° C | 88% | 1010 hPa | - | - | - | - |
| 1788483604 | 20.56° C | 87% | 1010 hPa | - | - | - | - |
| 1788481802 | 20° C | 88% | 1010 hPa | - | - | - | - |
| 1788480005 | 19.44° C | 90% | 1011 hPa | - | - | - | - |
| 1788478204 | 19.44° C | 91% | 1011 hPa | - | - | - | - |
| 1788476402 | 19.44° C | 89% | 1011 hPa | - | - | - | - |
| 1788474605 | 19.44° C | 88% | 1012 hPa | - | - | - | - |
| 1788472805 | 19.44° C | 86% | 1012 hPa | - | - | - | - |
| 1788471002 | 19.44° C | 85% | 1012 hPa | - | - | - | - |
* Rain latest hour (hover to see other rain measurements)
** Current wind speed in m/s (hover to see current wind gust speed)